Location: Miles
(41.4492°N, 81.6087°W)
Time: 00:11:14
(UTC+00:00)

Courier 1B Rocket - Visible Passes

Search period start: 12 September 2024 00:00
Search period end: 22 September 2024 00:00
Orbit: 920 x 1201 km, 28.2° (Epoch: 11 September)

Date Brightness Start Highest point End Pass type
(mag) Time Alt. Az. Time Alt. Az. Time Alt. Az.
12 Sep 6.5 01:29:04 10° WSW 01:35:14 28° S 01:37:31 24° SSE visible
12 Sep 7.5 03:23:14 10° WSW 03:23:52 12° SW 03:23:52 12° SW visible
13 Sep 6.5 00:28:00 10° WSW 00:34:07 29° S 00:39:58 12° SE visible
13 Sep 6.8 02:21:29 10° WSW 02:26:19 21° SSW 02:26:19 21° SSW visible
14 Sep 6.7 01:20:05 10° WSW 01:25:51 25° SSW 01:28:46 20° SSE visible
15 Sep 6.6 00:18:55 10° WSW 00:24:46 27° S 00:30:54 10° SE visible
15 Sep 7.0 02:13:01 10° WSW 02:17:29 17° SSW 02:17:37 17° SSW visible
16 Sep 6.9 01:11:21 10° WSW 01:16:27 20° SSW 01:20:08 14° SSE visible
17 Sep 6.8 00:10:02 10° WSW 00:15:25 23° SSW 00:21:05 10° SE visible
17 Sep 7.3 02:05:26 10° SW 02:08:02 12° SSW 02:09:03 12° SSW visible
18 Sep 7.2 01:03:01 10° SW 01:07:04 16° SSW 01:11:12 10° SSE visible
19 Sep 7.1 00:01:23 10° WSW 00:06:05 19° SSW 00:10:58 10° SSE visible
20 Sep 7.5 00:55:55 10° SW 00:57:39 11° SSW 00:59:23 10° S visible
20 Sep 7.3 23:53:13 10° SW 23:56:43 14° SSW 00:00:19 10° S visible
